User: anonymous   Login
Location: Unspecified
(0.0000°N, 0.0000°E)
Time: 04:08:29
(UTC+00:00)
Language:

ELISA W23 - Orbit

View from above orbital plane
View from above orbital plane
View from above satellite
View from above satellite

Ground track
Ground track

The orbit data is extracted from the following two-line orbital elements,

1 38007U 11076A   18275.83773763 0.00000110  00000-0  20546-4 0    06
2 38007  97.9912 338.5832 0002500 289.3030  70.6969 14.65024196    06
Epoch (UTC): 02 October 2018 20:06:20
Eccentricity: 0.0002500
inclination: 97.9912°
perigee height: 675 km
apogee height: 679 km
right ascension of ascending node: 338.5832°
argument of perigee: 289.3030°
revolutions per day: 14.65024196
mean anomaly at epoch: 70.6969°
orbit number at epoch: 0

The dashed part of the orbit path shows where the satellite is in the earth's shadow,  

DLR